,,,PA_Meas_PMT16A,,PR_Meas_QMR101_102,,RH_Meas_QMH101,,SR_Meas_QMS101,,TA_Meas_QMH101,,GenWind,,GenWind,
date,time,status,PA,status,PR,status,RH,status,SR,status,TA,status,DirAvg,status,SpdAvg,
2012-04-01, 00:00:05,VALID,1006.06,VALID,0,VALID,88.2738,VALID,0,VALID,24.1494,VALID,256,VALID,0.412109,
2012-04-01, 00:01:05,VALID,1006.06,VALID,0,VALID,88.0144,VALID,0,VALID,24.1476,VALID,11,VALID,1.45117,
2012-04-01, 00:02:05,VALID,1006.08,VALID,0,VALID,88.2051,VALID,0,VALID,24.1689,VALID,301,VALID,0.502344,
2012-04-01, 00:03:05,VALID,1006.09,VALID,0,VALID,88.0678,VALID,0,VALID,24.1689,VALID,350,VALID,0.596094,
2012-04-01, 00:04:05,VALID,1006.12,VALID,0,VALID,88.1365,VALID,0,VALID,24.1494,VALID,7,VALID,0.833594,
2012-04-01, 00:05:05,VALID,1006.09,VALID,0,VALID,87.9152,VALID,0,VALID,24.1689,VALID,360,VALID,1.00781,
2012-04-01, 00:06:05,VALID,1006.09,VALID,0,VALID,88.0068,VALID,0,VALID,24.1689,VALID,347,VALID,1.19922,
2012-04-01, 00:07:05,VALID,1006.08,VALID,0,VALID,88.1136,VALID,0,VALID,24.1689,VALID,294,VALID,0.628906,
2012-04-01, 00:08:05,VALID,1006.11,VALID,0,VALID,88.2661,VALID,0,VALID,24.1689,VALID,322,VALID,0.732813,
2012-04-01, 00:09:05,VALID,1006.08,VALID,0,VALID,88.3958,VALID,0,VALID,24.2097,VALID,348,VALID,0.413672,
2012-04-01, 00:10:05,VALID,1006.12,VALID,0,VALID,88.1899,VALID,0,VALID,24.1494,VALID,9,VALID,0.537109,
2012-04-01, 00:11:05,VALID,1006.1,VALID,0,VALID,88.2051,VALID,0,VALID,24.1494,VALID,324,VALID,0.526172,
2012-04-01, 00:12:05,VALID,1006.09,VALID,0,VALID,88.228,VALID,0,VALID,24.1494,VALID,319,VALID,0.590234,
2012-04-01, 00:13:05,VALID,1006.12,VALID,0,VALID,88.2585,VALID,0,VALID,24.1494,VALID,321,VALID,0.879687,
2012-04-01, 00:14:05,VALID,1006.08,VALID,0,VALID,88.2509,VALID,0,VALID,24.1494,VALID,331,VALID,0.817969,
2012-04-01, 00:15:05,VALID,1006.09,VALID,0,VALID,88.2433,VALID,0,VALID,24.1105,VALID,334,VALID,0.491016,
2012-04-01, 00:16:05,VALID,1006.11,VALID,0,VALID,88.3958,VALID,0,VALID,24.13,VALID,314,VALID,0.500781,
2012-04-01, 00:17:05,VALID,1006.12,VALID,0,VALID,88.5255,VALID,0,VALID,24.13,VALID,338,VALID,0.394141,
2012-04-01, 00:18:05,VALID,1006.09,VALID,0,VALID,88.5942,VALID,0,VALID,24.1105,VALID,5,VALID,0.869531,
2012-04-01, 00:19:05,VALID,1006.05,VALID,0,VALID,88.6171,VALID,0,VALID,24.1318,VALID,17,VALID,0.273828,
2012-04-01, 00:20:05,VALID,1006.06,VALID,0,VALID,88.4721,VALID,0,VALID,24.1105,VALID,18,VALID,0.569922,
2012-04-01, 00:21:05,VALID,1006.03,VALID,0,VALID,88.6323,VALID,0,VALID,24.091,VALID,252,VALID,0.567578,
2012-04-01, 00:22:05,VALID,1006.05,VALID,0,VALID,88.5637,VALID,0,VALID,24.1105,VALID,2,VALID,0.65,
2012-04-01, 00:23:05,VALID,1006.05,VALID,0,VALID,88.6476,VALID,0.0815089,VALID,24.1123,VALID,258,VALID,0.535937,
2012-04-01, 00:24:05,VALID,1006.02,VALID,0,VALID,88.5408,VALID,0,VALID,24.091,VALID,289,VALID,0.171875,
2012-04-01, 00:25:05,VALID,1006.02,VALID,0,VALID,88.5103,VALID,0,VALID,24.1105,VALID,360,VALID,0.255859,
2012-04-01, 00:26:05,VALID,1006.02,VALID,0,VALID,88.6094,VALID,0,VALID,24.1105,VALID,293,VALID,0.393359,
2012-04-01, 00:27:05,VALID,1006.03,VALID,0,VALID,88.5332,VALID,0,VALID,24.13,VALID,257,VALID,0.572266,
2012-04-01, 00:28:05,VALID,1005.99,VALID,0,VALID,88.556,VALID,0,VALID,24.13,VALID,264,VALID,0.403516,
2012-04-01, 00:29:05,VALID,1006,VALID,0,VALID,88.5179,VALID,0,VALID,24.1513,VALID,271,VALID,0.164453,
2012-04-01, 00:30:05,VALID,1006,VALID,0,VALID,88.3577,VALID,0,VALID,24.13,VALID,296,VALID,1.31211,
2012-04-01, 00:31:05,VALID,1005.99,VALID,0,VALID,88.4874,VALID,0,VALID,24.13,VALID,313,VALID,0.180469,
2012-04-01, 00:32:05,VALID,1006,VALID,0,VALID,88.5026,VALID,0,VALID,24.1494,VALID,296,VALID,0.348437,
2012-04-01, 00:33:05,VALID,1006,VALID,0,VALID,88.5866,VALID,0,VALID,24.1494,VALID,267,VALID,0.359766,
2012-04-01, 00:34:05,VALID,1005.99,VALID,0,VALID,88.6628,VALID,0,VALID,24.1494,VALID,268,VALID,0.00898437,
2012-04-01, 00:35:05,VALID,1005.97,VALID,0,VALID,88.4798,VALID,0,VALID,24.1707,VALID,303,VALID,0.654297,
2012-04-01, 00:36:05,VALID,1005.98,VALID,0,VALID,88.3577,VALID,0,VALID,24.13,VALID,349,VALID,0.670313,
2012-04-01, 00:37:05,VALID,1005.97,VALID,0,VALID,88.3424,VALID,0,VALID,24.1494,VALID,315,VALID,0.50625,
2012-04-01, 00:38:05,VALID,1005.98,VALID,0,VALID,88.4798,VALID,0,VALID,24.1689,VALID,319,VALID,0.314063,
2012-04-01, 00:39:05,VALID,1005.97,VALID,0,VALID,88.228,VALID,0,VALID,24.1689,VALID,318,VALID,0.498437,
2012-04-01, 00:40:05,VALID,1005.95,VALID,0,VALID,88.1517,VALID,0,VALID,24.1884,VALID,352,VALID,1.1043,
2012-04-01, 00:41:05,VALID,1006.01,VALID,0,VALID,88.1059,VALID,0.0815089,VALID,24.1884,VALID,301,VALID,0.804297,
2012-04-01, 00:42:05,VALID,1006.02,VALID,0,VALID,88.228,VALID,0,VALID,24.1689,VALID,316,VALID,0.195703,
2012-04-01, 00:43:05,VALID,1006.01,VALID,0,VALID,87.9915,VALID,0,VALID,24.1884,VALID,356,VALID,1.12461,
2012-04-01, 00:44:05,VALID,1005.98,VALID,0,VALID,88.0831,VALID,0,VALID,24.1689,VALID,311,VALID,0.483594,
2012-04-01, 00:45:05,VALID,1005.98,VALID,0,VALID,88.2051,VALID,0,VALID,24.1884,VALID,358,VALID,0.489844,
2012-04-01, 00:46:05,VALID,1005.98,VALID,0,VALID,88.1975,VALID,0,VALID,24.1884,VALID,346,VALID,0.783984,
2012-04-01, 00:47:05,VALID,1005.97,VALID,0,VALID,88.1365,VALID,0,VALID,24.1902,VALID,348,VALID,0.619922,
2012-04-01, 00:48:05,VALID,1005.96,VALID,0,VALID,87.9076,VALID,0,VALID,24.1884,VALID,349,VALID,1.13984,
2012-04-01, 00:49:05,VALID,1005.94,VALID,0,VALID,88.0373,VALID,0,VALID,24.1884,VALID,347,VALID,0.532422,
2012-04-01, 00:50:05,VALID,1005.91,VALID,0,VALID,88.0449,VALID,0,VALID,24.1671,VALID,345,VALID,0.480078,
2012-04-01, 00:51:05,VALID,1005.89,VALID,0,VALID,88.1975,VALID,0,VALID,24.1865,VALID,345,VALID,0.50625,
2012-04-01, 00:52:05,VALID,1005.87,VALID,0,VALID,88.0296,VALID,0,VALID,24.1884,VALID,345,VALID,0.850781,
2012-04-01, 00:53:05,VALID,1005.84,VALID,0,VALID,88.1059,VALID,0,VALID,24.2291,VALID,1,VALID,0.671875,
2012-04-01, 00:54:05,VALID,1005.81,VALID,0,VALID,87.9,VALID,0,VALID,24.2291,VALID,13,VALID,0.428516,
2012-04-01, 00:55:05,VALID,1005.82,VALID,0,VALID,87.8084,VALID,0,VALID,24.2291,VALID,331,VALID,0.510547,
2012-04-01, 00:56:05,VALID,1005.83,VALID,0,VALID,87.8237,VALID,0,VALID,24.206,VALID,312,VALID,0.209375,
2012-04-01, 00:57:05,VALID,1005.8,VALID,0,VALID,87.8466,VALID,0,VALID,24.2078,VALID,277,VALID,0.461719,
2012-04-01, 00:58:05,VALID,1005.8,VALID,0,VALID,87.9915,VALID,0,VALID,24.2486,VALID,282,VALID,0.56875,
2012-04-01, 00:59:05,VALID,1005.76,VALID,0,VALID,87.9762,VALID,0,VALID,24.2078,VALID,337,VALID,0.394922,
2012-04-01, 01:00:05,VALID,1005.77,VALID,0,VALID,87.8771,VALID,0,VALID,24.2291,VALID,332,VALID,0.414844,
2012-04-01, 01:01:05,VALID,1005.77,VALID,0,VALID,88.1441,VALID,0,VALID,24.2097,VALID,332,VALID,0.209766,
2012-04-01, 01:02:05,VALID,1005.75,VALID,0,VALID,88.3119,VALID,0,VALID,24.2097,VALID,321,VALID,0.352734,
2012-04-01, 01:03:05,VALID,1005.75,VALID,0,VALID,88.3958,VALID,0,VALID,24.1902,VALID,1,VALID,0.755078,
2012-04-01, 01:04:05,VALID,1005.75,VALID,0,VALID,88.3882,VALID,0,VALID,24.1689,VALID,347,VALID,0.289063,
2012-04-01, 01:05:05,VALID,1005.75,VALID,0,VALID,88.434,VALID,0,VALID,24.13,VALID,350,VALID,0.75,
2012-04-01, 01:06:05,VALID,1005.75,VALID,0,VALID,88.5408,VALID,0,VALID,24.13,VALID,340,VALID,0.441797,
2012-04-01, 01:07:05,VALID,1005.7,VALID,0,VALID,88.6705,VALID,0,VALID,24.1318,VALID,344,VALID,0.636719,
2012-04-01, 01:08:05,VALID,1005.66,VALID,0,VALID,88.8536,VALID,0,VALID,24.091,VALID,289,VALID,0.689844,
2012-04-01, 01:09:05,VALID,1005.68,VALID,0,VALID,88.8612,VALID,0,VALID,24.091,VALID,262,VALID,0.288281,
2012-04-01, 01:10:05,VALID,1005.64,VALID,0,VALID,88.9299,VALID,0,VALID,24.0929,VALID,348,VALID,0.491797,
2012-04-01, 01:11:05,VALID,1005.62,VALID,0,VALID,89.1053,VALID,0,VALID,24.0734,VALID,343,VALID,0.255078,
2012-04-01, 01:12:05,VALID,1005.56,VALID,0.5,VALID,89.0595,VALID,0,VALID,24.0734,VALID,334,VALID,0.251953,
2012-04-01, 01:13:05,VALID,1005.53,VALID,0,VALID,89.1892,VALID,0,VALID,24.0539,VALID,338,VALID,0.213281,
2012-04-01, 01:14:05,VALID,1005.49,VALID,0,VALID,89.2655,VALID,0,VALID,24.0132,VALID,337,VALID,0.151953,
2012-04-01, 01:15:05,VALID,1005.49,VALID,0,VALID,89.0824,VALID,0,VALID,23.9937,VALID,291,VALID,0.923828,
2012-04-01, 01:16:05,VALID,1005.46,VALID,0,VALID,89.1816,VALID,0,VALID,23.9937,VALID,279,VALID,0.698828,
2012-04-01, 01:17:05,VALID,1005.46,VALID,0,VALID,89.2808,VALID,0,VALID,24.0345,VALID,309,VALID,0.841406,
2012-04-01, 01:18:05,VALID,1005.42,VALID,0,VALID,89.2732,VALID,0,VALID,24.0345,VALID,316,VALID,0.253516,
2012-04-01, 01:19:05,VALID,1005.42,VALID,0,VALID,89.4334,VALID,0,VALID,24.015,VALID,319,VALID,0.630469,
2012-04-01, 01:20:05,VALID,1005.39,VALID,0,VALID,89.4563,VALID,0,VALID,24.015,VALID,280,VALID,0.164453,
2012-04-01, 01:21:04,VALID,1005.38,VALID,0,VALID,89.5631,VALID,0,VALID,23.9955,VALID,327,VALID,0.0632813,
2012-04-01, 01:22:04,VALID,1005.36,VALID,0,VALID,89.6775,VALID,0,VALID,23.9955,VALID,327,VALID,0.123438,
2012-04-01, 01:23:04,VALID,1005.36,VALID,0,VALID,89.8148,VALID,0,VALID,23.9761,VALID,330,VALID,0.321875,
2012-04-01, 01:24:04,VALID,1005.36,VALID,0,VALID,89.975,VALID,0,VALID,23.9761,VALID,328,VALID,0.205859,
2012-04-01, 01:25:04,VALID,1005.32,VALID,0,VALID,89.8301,VALID,0,VALID,23.9566,VALID,320,VALID,0.414063,
2012-04-01, 01:26:04,VALID,1005.31,VALID,0,VALID,89.9292,VALID,0,VALID,23.9371,VALID,318,VALID,0.0105469,
2012-04-01, 01:27:04,VALID,1005.31,VALID,0,VALID,90.1429,VALID,0,VALID,23.9371,VALID,319,VALID,0,
2012-04-01, 01:28:04,VALID,1005.28,VALID,0,VALID,90.1581,VALID,0,VALID,23.9159,VALID,323,VALID,0.126172,
2012-04-01, 01:29:04,VALID,1005.27,VALID,0,VALID,90.1505,VALID,0,VALID,23.9177,VALID,336,VALID,0.268359,
2012-04-01, 01:30:04,VALID,1005.26,VALID,0,VALID,90.1734,VALID,0,VALID,23.8964,VALID,337,VALID,0.403516,
2012-04-01, 01:31:04,VALID,1005.28,VALID,0,VALID,90.242,VALID,0,VALID,23.9177,VALID,333,VALID,0.156641,
2012-04-01, 01:32:04,VALID,1005.28,VALID,0,VALID,90.3336,VALID,0,VALID,23.9371,VALID,333,VALID,0.0371094,
2012-04-01, 01:33:04,VALID,1005.26,VALID,0,VALID,90.3183,VALID,0,VALID,23.9159,VALID,332,VALID,0.0804688,
2012-04-01, 01:34:04,VALID,1005.26,VALID,0,VALID,90.2802,VALID,0,VALID,23.9159,VALID,334,VALID,0.246875,
2012-04-01, 01:35:04,VALID,1005.23,VALID,0,VALID,90.2802,VALID,0,VALID,23.8964,VALID,327,VALID,0.0535156,
2012-04-01, 01:36:04,VALID,1005.19,VALID,0,VALID,90.1581,VALID,0,VALID,23.9177,VALID,357,VALID,0.462891,
2012-04-01, 01:37:04,VALID,1005.21,VALID,0,VALID,90.1352,VALID,0,VALID,23.9177,VALID,340,VALID,0,
2012-04-01, 01:38:04,VALID,1005.15,VALID,0,VALID,90.1429,VALID,0,VALID,23.9177,VALID,339,VALID,0,
2012-04-01, 01:39:04,VALID,1005.18,VALID,0,VALID,90.181,VALID,0,VALID,23.9566,VALID,338,VALID,0,
2012-04-01, 01:40:04,VALID,1005.18,VALID,0,VALID,90.036,VALID,0,VALID,23.9566,VALID,260,VALID,0.339453,
2012-04-01, 01:41:04,VALID,1005.15,VALID,0,VALID,90.0742,VALID,0,VALID,23.9353,VALID,260,VALID,0,
2012-04-01, 01:42:04,VALID,1005.13,VALID,0,VALID,90.0894,VALID,0,VALID,23.9761,VALID,260,VALID,0.003125,
2012-04-01, 01:43:04,VALID,1005.14,VALID,0,VALID,90.1581,VALID,0,VALID,23.9548,VALID,260,VALID,0.00273437,
2012-04-01, 01:44:04,VALID,1005.1,VALID,0,VALID,90.2497,VALID,0,VALID,23.9761,VALID,260,VALID,0,
2012-04-01, 01:45:04,VALID,1005.11,VALID,0,VALID,90.2039,VALID,0,VALID,23.9548,VALID,260,VALID,0.0648438,
2012-04-01, 01:46:04,VALID,1005.11,VALID,0,VALID,90.0894,VALID,0,VALID,23.9353,VALID,340,VALID,0.824219,
2012-04-01, 01:47:04,VALID,1005.11,VALID,0,VALID,89.8377,VALID,0,VALID,23.9955,VALID,348,VALID,1.08945,
2012-04-01, 01:48:04,VALID,1005.09,VALID,0,VALID,89.6165,VALID,0,VALID,23.9937,VALID,5,VALID,0.798437,
2012-04-01, 01:49:04,VALID,1005.1,VALID,0,VALID,89.5936,VALID,0,VALID,24.0132,VALID,346,VALID,0.269141,
2012-04-01, 01:50:04,VALID,1005.09,VALID,0,VALID,89.647,VALID,0,VALID,24.0521,VALID,346,VALID,0.167969,
2012-04-01, 01:51:04,VALID,1005.09,VALID,0,VALID,89.6546,VALID,0,VALID,24.0734,VALID,346,VALID,0.05625,
2012-04-01, 01:52:04,VALID,1005.08,VALID,0,VALID,89.502,VALID,0,VALID,24.0521,VALID,301,VALID,0.650391,
2012-04-01, 01:53:04,VALID,1005.08,VALID,0,VALID,89.6012,VALID,0,VALID,24.0734,VALID,321,VALID,0,
2012-04-01, 01:54:04,VALID,1005.07,VALID,0,VALID,89.6699,VALID,0,VALID,24.0734,VALID,320,VALID,0.00664063,
2012-04-01, 01:55:04,VALID,1005.05,VALID,0,VALID,89.5173,VALID,0,VALID,24.0716,VALID,352,VALID,0.257422,
2012-04-01, 01:56:04,VALID,1005.07,VALID,0,VALID,89.4791,VALID,0,VALID,24.0716,VALID,352,VALID,0,
2012-04-01, 01:57:04,VALID,1004.99,VALID,0,VALID,89.4334,VALID,0,VALID,24.0716,VALID,352,VALID,0,
2012-04-01, 01:58:04,VALID,1004.97,VALID,0,VALID,89.5097,VALID,0,VALID,24.091,VALID,352,VALID,0.0015625,
2012-04-01, 01:59:04,VALID,1004.95,VALID,0,VALID,89.4486,VALID,0,VALID,24.0929,VALID,331,VALID,0.225781,
2012-04-01, 02:00:04,VALID,1004.95,VALID,0,VALID,89.3876,VALID,0,VALID,24.0716,VALID,303,VALID,0.265234,
2012-04-01, 02:01:04,VALID,1004.93,VALID,0,VALID,89.38,VALID,0,VALID,24.0697,VALID,304,VALID,0.142188,
2012-04-01, 02:02:04,VALID,1004.9,VALID,0,VALID,89.3189,VALID,0,VALID,24.0716,VALID,328,VALID,0.243359,
2012-04-01, 02:03:04,VALID,1004.88,VALID,0,VALID,89.1969,VALID,0,VALID,24.1123,VALID,308,VALID,0.467969,
2012-04-01, 02:04:04,VALID,1004.89,VALID,0,VALID,89.0901,VALID,0,VALID,24.091,VALID,303,VALID,0.321875,
2012-04-01, 02:05:04,VALID,1004.85,VALID,0,VALID,89.1053,VALID,0,VALID,24.1318,VALID,303,VALID,0.345703,
2012-04-01, 02:06:04,VALID,1004.87,VALID,0,VALID,89.174,VALID,0,VALID,24.1105,VALID,303,VALID,0,
2012-04-01, 02:07:04,VALID,1004.86,VALID,0,VALID,89.1587,VALID,0,VALID,24.1123,VALID,284,VALID,0.4375,
2012-04-01, 02:08:04,VALID,1004.85,VALID,0,VALID,88.9146,VALID,0,VALID,24.1105,VALID,270,VALID,0.382031,
2012-04-01, 02:09:04,VALID,1004.84,VALID,0,VALID,88.8536,VALID,0,VALID,24.1105,VALID,342,VALID,0.1375,
2012-04-01, 02:10:04,VALID,1004.85,VALID,0,VALID,88.8688,VALID,0,VALID,24.13,VALID,342,VALID,0.248047,
2012-04-01, 02:11:04,VALID,1004.83,VALID,0,VALID,88.8536,VALID,0,VALID,24.1494,VALID,347,VALID,0.533984,
2012-04-01, 02:12:04,VALID,1004.81,VALID,0,VALID,88.7468,VALID,0,VALID,24.1513,VALID,337,VALID,0.373047,
2012-04-01, 02:13:04,VALID,1004.82,VALID,0,VALID,88.7086,VALID,0,VALID,24.1707,VALID,283,VALID,1.03867,
2012-04-01, 02:14:04,VALID,1004.86,VALID,0,VALID,88.6018,VALID,0,VALID,24.1707,VALID,301,VALID,0.303125,
2012-04-01, 02:15:04,VALID,1004.83,VALID,0,VALID,88.5942,VALID,0,VALID,24.1902,VALID,303,VALID,0.644141,
2012-04-01, 02:16:04,VALID,1004.82,VALID,0,VALID,88.5255,VALID,0,VALID,24.1902,VALID,347,VALID,0.419531,
2012-04-01, 02:17:04,VALID,1004.83,VALID,0,VALID,88.6171,VALID,0,VALID,24.1689,VALID,326,VALID,0.305469,
2012-04-01, 02:18:04,VALID,1004.8,VALID,0,VALID,88.6247,VALID,0,VALID,24.1689,VALID,307,VALID,0.0121094,
2012-04-01, 02:19:04,VALID,1004.85,VALID,0,VALID,88.6018,VALID,0,VALID,24.1494,VALID,350,VALID,0.406641,
2012-04-01, 02:20:04,VALID,1004.84,VALID,0,VALID,88.6171,VALID,0,VALID,24.1689,VALID,335,VALID,0.397656,
2012-04-01, 02:21:04,VALID,1004.86,VALID,0,VALID,88.6552,VALID,0,VALID,24.1884,VALID,315,VALID,0.524609,
2012-04-01, 02:22:04,VALID,1004.87,VALID,0,VALID,88.5942,VALID,0,VALID,24.1902,VALID,305,VALID,0.661328,
2012-04-01, 02:23:04,VALID,1004.9,VALID,0,VALID,88.5484,VALID,0,VALID,24.2097,VALID,279,VALID,0.5,
2012-04-01, 02:24:04,VALID,1004.9,VALID,0,VALID,88.4111,VALID,0,VALID,24.2097,VALID,342,VALID,1.05625,
2012-04-01, 02:25:04,VALID,1004.88,VALID,0,VALID,88.434,VALID,0,VALID,24.1884,VALID,345,VALID,0.267969,
2012-04-01, 02:26:04,VALID,1004.91,VALID,0,VALID,88.4264,VALID,0,VALID,24.2078,VALID,327,VALID,0.197656,
2012-04-01, 02:27:04,VALID,1004.9,VALID,0,VALID,88.5179,VALID,0,VALID,24.2078,VALID,277,VALID,0,
2012-04-01, 02:28:04,VALID,1004.89,VALID,0,VALID,88.5408,VALID,0,VALID,24.2078,VALID,282,VALID,0.735937,
2012-04-01, 02:29:04,VALID,1004.9,VALID,0,VALID,88.5255,VALID,0,VALID,24.2291,VALID,270,VALID,0.274609,
2012-04-01, 02:30:04,VALID,1004.89,VALID,0,VALID,88.3806,VALID,0,VALID,24.2486,VALID,284,VALID,0.443359,
2012-04-01, 02:31:04,VALID,1004.89,VALID,0,VALID,88.2356,VALID,0,VALID,24.2291,VALID,346,VALID,0.857422,
2012-04-01, 02:32:04,VALID,1004.87,VALID,0,VALID,88.3043,VALID,0,VALID,24.2486,VALID,349,VALID,0.646875,
2012-04-01, 02:33:04,VALID,1004.89,VALID,0,VALID,88.2967,VALID,0,VALID,24.2468,VALID,349,VALID,0.359766,
2012-04-01, 02:34:04,VALID,1004.87,VALID,0,VALID,88.3729,VALID,0.0815089,VALID,24.2681,VALID,349,VALID,0,
2012-04-01, 02:35:04,VALID,1004.87,VALID,0,VALID,88.495,VALID,0,VALID,24.2273,VALID,349,VALID,0,
2012-04-01, 02:36:04,VALID,1004.86,VALID,0,VALID,88.495,VALID,0,VALID,24.2078,VALID,338,VALID,0.475391,
2012-04-01, 02:37:04,VALID,1004.86,VALID,0,VALID,88.4645,VALID,0,VALID,24.2291,VALID,344,VALID,0.531641,
2012-04-01, 02:38:04,VALID,1004.86,VALID,0,VALID,88.5942,VALID,0,VALID,24.2078,VALID,289,VALID,0.770312,
2012-04-01, 02:39:04,VALID,1004.87,VALID,0,VALID,88.5713,VALID,0,VALID,24.2078,VALID,279,VALID,0.264453,
2012-04-01, 02:40:04,VALID,1004.85,VALID,0,VALID,88.7391,VALID,0,VALID,24.2097,VALID,288,VALID,0.295703,
2012-04-01, 02:41:04,VALID,1004.86,VALID,0,VALID,88.6552,VALID,0,VALID,24.2097,VALID,321,VALID,0.605078,
2012-04-01, 02:42:04,VALID,1004.85,VALID,0,VALID,88.6934,VALID,0,VALID,24.1902,VALID,322,VALID,0.0195313,
2012-04-01, 02:43:04,VALID,1004.84,VALID,0,VALID,88.6552,VALID,0,VALID,24.1902,VALID,347,VALID,0.377734,
2012-04-01, 02:44:04,VALID,1004.83,VALID,0,VALID,88.5103,VALID,0,VALID,24.2097,VALID,345,VALID,1.14141,
2012-04-01, 02:45:04,VALID,1004.8,VALID,0,VALID,88.4798,VALID,0,VALID,24.2097,VALID,331,VALID,0.276953,
2012-04-01, 02:46:04,VALID,1004.83,VALID,0,VALID,88.4187,VALID,0,VALID,24.2078,VALID,286,VALID,0.359766,
2012-04-01, 02:47:04,VALID,1004.81,VALID,0,VALID,88.1517,VALID,0,VALID,24.2486,VALID,347,VALID,1.08203,
2012-04-01, 02:48:04,VALID,1004.8,VALID,0,VALID,87.7932,VALID,0,VALID,24.2486,VALID,339,VALID,1.04727,
2012-04-01, 02:49:04,VALID,1004.81,VALID,0,VALID,87.8237,VALID,0,VALID,24.2681,VALID,345,VALID,0.121484,
2012-04-01, 02:50:04,VALID,1004.79,VALID,0,VALID,87.8618,VALID,0,VALID,24.2857,VALID,346,VALID,0.176953,
2012-04-01, 02:51:04,VALID,1004.81,VALID,0,VALID,87.3507,VALID,0,VALID,24.2875,VALID,358,VALID,1.2457,
2012-04-01, 02:52:04,VALID,1004.81,VALID,0,VALID,87.6482,VALID,0,VALID,24.2875,VALID,327,VALID,0.147656,
2012-04-01, 02:53:04,VALID,1004.82,VALID,0,VALID,87.4575,VALID,0,VALID,24.2875,VALID,328,VALID,0.503125,
2012-04-01, 02:54:04,VALID,1004.83,VALID,0,VALID,87.1752,VALID,0,VALID,24.2875,VALID,7,VALID,0.706641,
2012-04-01, 02:55:04,VALID,1004.82,VALID,0,VALID,86.8701,VALID,0,VALID,24.2857,VALID,347,VALID,0.898047,
2012-04-01, 02:56:04,VALID,1004.82,VALID,0,VALID,86.8395,VALID,0,VALID,24.3673,VALID,348,VALID,0.7375,
2012-04-01, 02:57:04,VALID,1004.8,VALID,0,VALID,86.8014,VALID,0,VALID,24.3673,VALID,348,VALID,0.869531,
2012-04-01, 02:58:04,VALID,1004.8,VALID,0,VALID,86.4123,VALID,0,VALID,24.3636,VALID,349,VALID,0.678125,
2012-04-01, 02:59:04,VALID,1004.82,VALID,0,VALID,86.5573,VALID,0,VALID,24.383,VALID,328,VALID,0.313672,
2012-04-01, 03:00:04,VALID,1004.83,VALID,0,VALID,86.5268,VALID,0,VALID,24.4238,VALID,350,VALID,0.789063,
2012-04-01, 03:01:04,VALID,1004.81,VALID,0,VALID,86.6641,VALID,0,VALID,24.4238,VALID,1,VALID,0.640234,
2012-04-01, 03:02:04,VALID,1004.78,VALID,0,VALID,86.6259,VALID,0,VALID,24.4025,VALID,341,VALID,0.953516,
2012-04-01, 03:03:04,VALID,1004.81,VALID,0,VALID,86.5496,VALID,0,VALID,24.4433,VALID,338,VALID,0.452734,
2012-04-01, 03:04:04,VALID,1004.8,VALID,0,VALID,86.4505,VALID,0,VALID,24.4628,VALID,346,VALID,1.09258,
2012-04-01, 03:05:04,VALID,1004.8,VALID,0,VALID,86.2674,VALID,0,VALID,24.4609,VALID,355,VALID,0.853125,
2012-04-01, 03:06:04,VALID,1004.8,VALID,0,VALID,86.2674,VALID,0,VALID,24.4998,VALID,351,VALID,0.223828,
2012-04-01, 03:07:04,VALID,1004.82,VALID,0,VALID,86.3589,VALID,0,VALID,24.5425,VALID,351,VALID,0.391797,
2012-04-01, 03:08:04,VALID,1004.82,VALID,0,VALID,86.1377,VALID,0,VALID,24.5601,VALID,355,VALID,0.906641,
2012-04-01, 03:09:04,VALID,1004.82,VALID,0,VALID,86.008,VALID,0,VALID,24.5601,VALID,337,VALID,0.888281,
2012-04-01, 03:10:04,VALID,1004.83,VALID,0,VALID,85.9165,VALID,0,VALID,24.5796,VALID,345,VALID,0.695313,
2012-04-01, 03:11:04,VALID,1004.84,VALID,0,VALID,85.9088,VALID,0,VALID,24.599,VALID,349,VALID,0.756641,
2012-04-01, 03:12:04,VALID,1004.84,VALID,0,VALID,85.7868,VALID,0,VALID,24.599,VALID,354,VALID,0.739844,
2012-04-01, 03:13:04,VALID,1004.84,VALID,0,VALID,85.9317,VALID,0,VALID,24.5972,VALID,359,VALID,0.2375,
2012-04-01, 03:14:04,VALID,1004.87,VALID,0,VALID,85.9546,VALID,0,VALID,24.6009,VALID,285,VALID,0.99375,
2012-04-01, 03:15:04,VALID,1004.86,VALID,0,VALID,86.1606,VALID,0,VALID,24.599,VALID,310,VALID,0.113672,
2012-04-01, 03:16:04,VALID,1004.88,VALID,0,VALID,86.2598,VALID,0,VALID,24.5796,VALID,320,VALID,0.179297,
2012-04-01, 03:17:04,VALID,1004.84,VALID,0,VALID,86.069,VALID,0,VALID,24.5796,VALID,354,VALID,0.651953,
2012-04-01, 03:18:04,VALID,1004.84,VALID,0,VALID,85.8325,VALID,0,VALID,24.5582,VALID,335,VALID,0.878516,
2012-04-01, 03:19:04,VALID,1004.88,VALID,0,VALID,85.9622,VALID,0,VALID,24.599,VALID,342,VALID,0.141016,
2012-04-01, 03:20:04,VALID,1004.88,VALID,0,VALID,86.0995,VALID,0,VALID,24.599,VALID,4,VALID,0.941406,
2012-04-01, 03:21:04,VALID,1004.85,VALID,0,VALID,85.9699,VALID,0,VALID,24.599,VALID,2,VALID,0.476953,
2012-04-01, 03:22:04,VALID,1004.89,VALID,0,VALID,86.1835,VALID,0,VALID,24.599,VALID,333,VALID,0.215234,
2012-04-01, 03:23:04,VALID,1004.88,VALID,0,VALID,86.0385,VALID,0,VALID,24.599,VALID,329,VALID,0.423047,
2012-04-01, 03:24:04,VALID,1004.9,VALID,0,VALID,86.1224,VALID,0,VALID,24.599,VALID,304,VALID,0.0578125,
2012-04-01, 03:25:04,VALID,1004.9,VALID,0,VALID,86.1301,VALID,0,VALID,24.5582,VALID,339,VALID,0.438281,
2012-04-01, 03:26:04,VALID,1004.93,VALID,0,VALID,86.3742,VALID,0,VALID,24.5601,VALID,339,VALID,0.0804688,
2012-04-01, 03:27:04,VALID,1004.92,VALID,0,VALID,86.4352,VALID,0,VALID,24.5406,VALID,340,VALID,0.138281,
2012-04-01, 03:28:04,VALID,1004.93,VALID,0,VALID,86.4962,VALID,0,VALID,24.5406,VALID,339,VALID,0.474609,
2012-04-01, 03:29:04,VALID,1004.92,VALID,0,VALID,86.5725,VALID,0,VALID,24.5212,VALID,3,VALID,0.653516,
2012-04-01, 03:30:04,VALID,1004.94,VALID,0,VALID,86.6717,VALID,0,VALID,24.4804,VALID,332,VALID,0.590234,
2012-04-01, 03:31:04,VALID,1004.92,VALID,0,VALID,86.7327,VALID,0,VALID,24.5212,VALID,340,VALID,0.25625,
2012-04-01, 03:32:04,VALID,1004.94,VALID,0,VALID,86.7938,VALID,0,VALID,24.5212,VALID,334,VALID,0.33125,
2012-04-01, 03:33:04,VALID,1004.96,VALID,0,VALID,86.8548,VALID,0,VALID,24.4804,VALID,325,VALID,0.0121094,
2012-04-01, 03:34:04,VALID,1004.96,VALID,0,VALID,87.0455,VALID,0,VALID,24.5017,VALID,325,VALID,0.109375,
2012-04-01, 03:35:04,VALID,1004.98,VALID,0,VALID,87.1066,VALID,0,VALID,24.4628,VALID,327,VALID,0.183984,
2012-04-01, 03:36:04,VALID,1004.98,VALID,0,VALID,87.2134,VALID,0,VALID,24.4841,VALID,330,VALID,0.571484,
2012-04-01, 03:37:04,VALID,1004.96,VALID,0,VALID,87.3965,VALID,0,VALID,24.4433,VALID,343,VALID,0.45625,
2012-04-01, 03:38:04,VALID,1004.95,VALID,0,VALID,87.5338,VALID,0,VALID,24.4238,VALID,13,VALID,0.460938,
2012-04-01, 03:39:04,VALID,1004.93,VALID,0,VALID,87.6635,VALID,0,VALID,24.422,VALID,325,VALID,0.514453,
2012-04-01, 03:40:04,VALID,1004.97,VALID,0,VALID,87.6787,VALID,0,VALID,24.4646,VALID,338,VALID,0.417188,
2012-04-01, 03:41:04,VALID,1004.96,VALID,0,VALID,87.7703,VALID,0,VALID,24.4238,VALID,331,VALID,0.291016,
2012-04-01, 03:42:04,VALID,1004.96,VALID,0,VALID,87.7169,VALID,0,VALID,24.4433,VALID,305,VALID,0.773438,
2012-04-01, 03:43:04,VALID,1004.96,VALID,0,VALID,87.6482,VALID,0,VALID,24.4628,VALID,355,VALID,0.937109,
2012-04-01, 03:44:04,VALID,1004.99,VALID,0,VALID,87.5109,VALID,0,VALID,24.5017,VALID,342,VALID,0.615234,
2012-04-01, 03:45:04,VALID,1005.03,VALID,0,VALID,87.4422,VALID,0,VALID,24.4998,VALID,319,VALID,0.615625,